Le nostre stazioni meteo in Italia

Pubblicità
Il mio iltempo24.it
Reggio Calabria, Italia (16422): Temperatura & dewpoint: 15.08.2019 14:00:00 - 21.08.2019 14:00:00 (CEST)Reggio Calabria, Italia (16422): velocità del vento: 15.08.2019 14:00:00 - 21.08.2019 14:00:00 (CEST)Reggio Calabria, Italia (16422): direzione del vento: 15.08.2019 14:00:00 - 21.08.2019 14:00:00 (CEST)Reggio Calabria, Italia (16422): reduced air pressure: 15.08.2019 14:00:00 - 21.08.2019 14:00:00 (CEST)Reggio Calabria, Italia (16422): visibility: 15.08.2019 14:00:00 - 21.08.2019 14:00:00 (CEST)
Data & Tempo tt [°C] td [°C] ff [km/h] ff [kn] dd ppp [hPa] vv [km]
21.08.2019 14:00:00 31,0 22,0 28 15 N - 10
21.08.2019 13:00:00 31,0 23,0 26 14 NNO - 10
21.08.2019 12:00:00 31,0 22,0 21 11 N - 10
21.08.2019 11:00:00 30,0 22,0 24 13 N - 10
21.08.2019 10:00:00 29,0 22,0 21 11 NNO - 10
21.08.2019 09:00:00 28,0 22,0 21 11 N - 10
21.08.2019 08:00:00 28,0 22,0 13 7 N - 10
21.08.2019 07:00:00 24,0 16,0 13 7 NE - 10
21.08.2019 06:00:00 23,0 15,0 9 5 NE - 10
21.08.2019 05:00:00 - - - - - - -
21.08.2019 04:00:00 - - - - - - -
21.08.2019 03:00:00 - - - - - - -
21.08.2019 02:00:00 - - - - - - -
21.08.2019 01:00:00 - - - - - - -
21.08.2019 00:00:00 24,0 20,0 5 3 ENE - 10
20.08.2019 23:00:00 25,0 21,0 4 2 E - 10
20.08.2019 22:00:00 25,0 21,0 8 4 SSE - 10
20.08.2019 21:00:00 26,0 21,0 11 6 SSO - 10
20.08.2019 20:00:00 26,0 21,0 16 9 SSO - 10
20.08.2019 19:00:00 28,0 22,0 13 7 SSO - 10
20.08.2019 18:00:00 28,0 23,0 22 12 SSO - 10
20.08.2019 17:00:00 29,0 22,0 24 13 SSO - 10
20.08.2019 16:00:00 30,0 23,0 24 13 SSO - 10
20.08.2019 15:00:00 30,0 23,0 29 16 SSO - 10
20.08.2019 14:00:00 30,0 22,0 34 18 SSO - 10
20.08.2019 13:00:00 30,0 22,0 26 14 SSO - 10
20.08.2019 12:00:00 29,0 22,0 16 9 SO - 10
20.08.2019 11:00:00 29,5 19,8 11 6 SO 1017,8 10
20.08.2019 10:00:00 29,0 20,0 15 8 NNO - 10
20.08.2019 09:00:00 28,0 21,0 11 6 N - 10
20.08.2019 08:00:00 26,7 17,5 8 4 NE 1017,0 10
20.08.2019 07:00:00 23,0 17,0 9 5 NE - 10
20.08.2019 06:00:00 23,0 15,0 9 5 NE - 10
20.08.2019 05:00:00 23,1 15,4 9 5 NE 1016,5 -
20.08.2019 04:00:00 - - - - - - -
20.08.2019 03:00:00 - - - - - - -
20.08.2019 02:00:00 23,5 15,8 9 5 NE 1016,8 -
20.08.2019 01:00:00 - - - - - - -
20.08.2019 00:00:00 24,0 17,0 8 4 NE - 10
19.08.2019 23:00:00 24,1 19,4 8 4 NE 1017,2 10
19.08.2019 22:00:00 26,0 21,0 4 2 - - 10
19.08.2019 21:00:00 26,0 22,0 9 5 S - 10
19.08.2019 20:00:00 26,6 21,4 11 6 SSO 1016,5 10
19.08.2019 19:00:00 28,0 21,0 15 8 SSO - 10
19.08.2019 18:00:00 28,0 22,0 16 9 SO - 10
19.08.2019 17:00:00 29,0 21,2 16 9 SSO 1016,5 10
19.08.2019 16:00:00 29,0 23,0 16 9 SO - 10
19.08.2019 15:00:00 29,0 22,0 16 9 SSO - 10
19.08.2019 14:00:00 29,7 21,7 15 8 SSO 1016,8 10
19.08.2019 13:00:00 30,0 21,0 15 8 SSO - 10
19.08.2019 12:00:00 30,0 19,0 11 6 SO - 10
19.08.2019 11:00:00 29,2 18,8 11 6 SO 1016,7 10
19.08.2019 10:00:00 28,0 18,0 8 4 ONO - 10
19.08.2019 09:00:00 28,0 14,0 8 4 NNO - 10
19.08.2019 08:00:00 27,0 12,0 2 1 N - 10
19.08.2019 07:00:00 22,0 14,0 5 3 ENE - 10
19.08.2019 06:00:00 22,0 14,0 4 2 E - 10
19.08.2019 05:00:00 - - - - - - -
19.08.2019 04:00:00 - - - - - - -
19.08.2019 03:00:00 - - - - - - -
19.08.2019 02:00:00 - - - - - - -
19.08.2019 01:00:00 - - - - - - -
19.08.2019 00:00:00 24,0 18,0 5 3 NE - 10
18.08.2019 23:00:00 25,0 19,0 5 3 E - 10
18.08.2019 22:00:00 27,0 21,0 5 3 S - 10
18.08.2019 21:00:00 26,0 21,0 11 6 SSO - 10
18.08.2019 20:00:00 27,0 20,0 13 7 SSO - 10
18.08.2019 19:00:00 28,0 19,0 15 8 SSO - 10
18.08.2019 18:00:00 29,0 19,0 15 8 SSO - 10
18.08.2019 17:00:00 29,0 17,0 13 7 SSO - 10
18.08.2019 16:00:00 30,0 19,0 15 8 SSO - 10
18.08.2019 15:00:00 29,0 19,0 15 8 S - 10
18.08.2019 14:00:00 29,0 21,0 13 7 SO - 10
18.08.2019 13:00:00 29,0 19,0 11 6 SSO - 10
18.08.2019 12:00:00 29,0 18,0 13 7 NNO - 10
18.08.2019 11:00:00 29,0 16,0 22 12 NO - 10
18.08.2019 10:00:00 28,0 19,0 24 13 NO - 10
18.08.2019 09:00:00 27,0 18,0 11 6 NNO - 10
18.08.2019 08:00:00 26,0 7,0 4 2 NE - 10
18.08.2019 07:00:00 23,0 10,0 5 3 NE - 10
18.08.2019 06:00:00 22,0 14,0 8 4 NE - 10
18.08.2019 05:00:00 - - - - - - -
18.08.2019 04:00:00 - - - - - - -
18.08.2019 03:00:00 - - - - - - -
18.08.2019 02:00:00 - - - - - - -
18.08.2019 01:00:00 - - - - - - -
18.08.2019 00:00:00 24,0 11,0 5 3 NNE - 10
17.08.2019 23:00:00 25,0 18,0 11 6 N - 10
17.08.2019 22:00:00 26,0 18,0 13 7 N - 10
17.08.2019 21:00:00 26,0 19,0 18 10 NNO - 10
17.08.2019 20:00:00 27,0 19,0 21 11 NNO - 10
17.08.2019 19:00:00 28,0 17,0 16 9 NNO - 10
17.08.2019 18:00:00 29,0 17,0 28 15 N - 10
17.08.2019 17:00:00 29,0 17,0 26 14 N - 10
17.08.2019 16:00:00 29,0 18,0 26 14 N - 10
17.08.2019 15:00:00 29,0 17,0 16 9 NNO - 10
17.08.2019 14:00:00 31,0 18,0 16 9 NNO - 10
17.08.2019 13:00:00 30,0 17,0 16 9 NNO - 10
17.08.2019 12:00:00 30,0 12,0 15 8 NO - 10
17.08.2019 11:00:00 28,0 18,0 15 8 NNO - 10
17.08.2019 10:00:00 29,0 18,0 16 9 NNO - 10
17.08.2019 09:00:00 28,0 15,0 13 7 NO - 10
17.08.2019 08:00:00 26,0 5,0 9 5 NE - 10
17.08.2019 07:00:00 24,0 3,0 8 4 ENE - 10
17.08.2019 06:00:00 24,0 7,0 9 5 NE - 10
17.08.2019 05:00:00 - - - - - - -
17.08.2019 04:00:00 - - - - - - -
17.08.2019 03:00:00 - - - - - - -
17.08.2019 02:00:00 - - - - - - -
17.08.2019 01:00:00 - - - - - - -
17.08.2019 00:00:00 16,0 12,0 11 6 NNO - 10
16.08.2019 23:00:00 - - - - - - -
16.08.2019 22:00:00 - - - - - - -
16.08.2019 21:00:00 26,0 18,0 15 8 N - 10
16.08.2019 20:00:00 26,0 17,0 18 10 N - 10
16.08.2019 19:00:00 28,0 17,0 21 11 N - 10
16.08.2019 18:00:00 29,0 18,0 22 12 N - 10
16.08.2019 17:00:00 30,0 18,0 28 15 N - 10
16.08.2019 16:00:00 31,0 18,0 28 15 N - 10
16.08.2019 15:00:00 31,0 18,0 24 13 N - 10
16.08.2019 14:00:00 31,0 17,0 24 13 N - 10
16.08.2019 13:00:00 31,0 16,0 24 13 N - 10
16.08.2019 12:00:00 30,0 17,0 22 12 N - 10
16.08.2019 11:00:00 30,0 18,0 18 10 N - 10
16.08.2019 10:00:00 27,0 18,0 13 7 N - 10
16.08.2019 09:00:00 27,0 19,0 16 9 N - 10
16.08.2019 08:00:00 26,0 19,0 13 7 NE - 10
16.08.2019 07:00:00 25,0 19,0 11 6 NNE - 10
16.08.2019 06:00:00 25,0 19,0 13 7 NE - 10
16.08.2019 05:00:00 - - - - - - -
16.08.2019 04:00:00 - - - - - - -
16.08.2019 03:00:00 - - - - - - -
16.08.2019 02:00:00 - - - - - - -
16.08.2019 01:00:00 - - - - - - -
16.08.2019 00:00:00 26,0 21,0 15 8 N - 10
15.08.2019 23:00:00 26,0 20,0 16 9 N - 10
15.08.2019 22:00:00 26,0 20,0 21 11 N - 10
15.08.2019 21:00:00 25,0 19,0 18 10 N - 10
15.08.2019 20:00:00 26,0 19,0 21 11 N - 10
15.08.2019 19:00:00 28,0 19,0 22 12 N - 10
15.08.2019 18:00:00 29,0 19,0 24 13 N - 10
15.08.2019 17:00:00 30,0 18,0 24 13 N - 10
15.08.2019 16:00:00 30,0 17,0 24 13 NNO - 10
15.08.2019 15:00:00 30,0 18,0 28 15 N - 10
15.08.2019 14:00:00 30,0 17,0 29 16 N - 10

tt = Temperatura
td = dewpoint
ff = velocità del vento
dd = direzione del vento
ppp = reduced air pressure
vv = visibility

Stazioni seguenti

WeatherPro
AMSI
MeteoEarth